This demonstration page uses our WeatherBlox Daily Observations layout. Learn more.

Left ArrowRight Arrow

31.84235, -102.49876

Hourly Observations for March 24, 2018

Temp ( °F °C ) Dew Point ( °F °C ) Humidity (%) Winds ( mph kmh ) Pressure ( in mb ) Visibility ( mi km ) Precip ( " mm )
12:53 am 00:53 Clear 67 19.4 58 14.4 73 73 SSW 14 22 29.81 1010 10 16 0.00 0.00
1:53 am 01:53 Clear 65 18.3 57 13.9 76 76 SW 8 13 29.82 1010 10 16 0.00 0.00
2:53 am 02:53 Clear 64 17.8 57 13.9 78 78 SW 8 13 29.82 1010 10 16 0.00 0.00
3:53 am 03:53 Clear 63 17.2 57 13.9 81 81 SW 8 13 29.81 1010 10 16 0.00 0.00
4:53 am 04:53 Clear 60 15.6 56 13.3 86 86 VRB 5 7 29.81 1010 10 16 0.00 0.00
5:53 am 05:53 Clear 57 13.9 55 12.8 93 93 undefined N/A 29.83 1010 10 16 0.00 0.00
6:53 am 06:53 Clear 59 15 56 13.3 90 90 Calm 29.85 1011 10 16 0.00 0.00
7:53 am 07:53 Sunny 56 13.3 53 11.7 90 90 NW 6 9 29.89 1012 9 14 0.00 0.00
8:10 am 08:10 Mostly Sunny 57 13.9 53 11.7 87 87 N 6 9 29.94 1014 9 14 0.00 0.00
8:53 am 08:53 Sunny 60 15.6 49 9.4 67 67 NW 8 13 29.91 1013 10 16 0.00 0.00
9:53 am 09:53 Sunny 68 20 38 3.3 33 33 N 3 6 29.92 1013 10 16 0.00 0.00
10:53 am 10:53 Sunny 77 25 25 -3.9 14 14 NNE 10 17 29.91 1013 10 16 0.00 0.00
11:53 am 11:53 Sunny 78 25.6 26 -3.3 15 15 E 13 20 29.91 1013 10 16 0.00 0.00
12:30 pm 12:30 Mostly Sunny 79 26.1 25 -3.9 14 14 ENE 12 19 29.85 1011 10 16 0.00 0.00
12:53 pm 12:53 Mostly Sunny 79 26.1 26 -3.3 14 14 VRB 6 9 29.90 1013 10 16 0.00 0.00
1:53 pm 13:53 Sunny 82 27.8 25 -3.9 12 12 SE 7 11 29.87 1012 10 16 0.00 0.00
2:53 pm 14:53 Sunny 83 28.3 23 -5 11 11 WSW 7 11 29.83 1010 10 16 0.00 0.00
3:53 pm 15:53 Sunny 85 29.4 23 -5 10 10 S 6 9 29.79 1009 10 16 0.00 0.00
4:53 pm 16:53 Sunny 87 30.6 27 -2.8 11 11 SW 18 30 29.76 1008 10 16 0.00 0.00
5:53 pm 17:53 Sunny 85 29.4 28 -2.2 13 13 WSW 13 20 29.75 1007 10 16 0.00 0.00
6:22 pm 18:22 Sunny 85 29.4 29 -1.7 13 13 SSW 14 22 29.65 1004 10 16 0.00 0.00
6:53 pm 18:53 Sunny 85 29.4 29 -1.7 13 13 SW 14 22 29.74 1007 10 16 0.00 0.00
7:53 pm 19:53 Sunny 82 27.8 27 -2.8 13 13 SW 10 17 29.76 1008 10 16 0.00 0.00
8:53 pm 20:53 Clear 77 25 28 -2.2 16 16 SE 5 7 29.75 1008 10 16 0.00 0.00
9:53 pm 21:53 Clear 75 23.9 30 -1.1 19 19 S 6 9 29.76 1008 10 16 0.00 0.00
10:53 pm 22:53 Clear 74 23.3 31 -0.6 20 20 SSE 8 13 29.77 1008 10 16 0.00 0.00
11:53 pm 23:53 Clear 77 25 31 -0.6 18 18 WNW 13 20 29.81 1009 10 16 0.00 0.00

Powered by AerisWeather